Regional Weather Roundup
Issued by NWS

Home | Current Version | Previous Version | Graphics & Text | Print | Product List | Glossary Off
Versions: 1 2 3 4 5 6 7 8 9 10 11 12 13 14 15 16 17 18 19 20 21 22 23 24 25 26 27 28 29 30 31 32 33 34 35 36 37 38 39 40 41 42 43 44 45 46 47 48 49 50

000
ASUS43 KMKX 241900
RWRWI

WISCONSIN REGIONAL WEATHER ROUNDUP
NATIONAL WEATHER SERVICE MILWAUKEE/SULLIVAN WI
200 PM CDT FRI OCT 24 2014

NOTE: "FAIR" INDICATES FEW OR NO CLOUDS BELOW 12,000 FEET WITH NO
SIGNIFICANT WEATHER AND/OR OBSTRUCTIONS TO VISIBILITY.

WIZ001-002-006>008-014>016-023>028-242000-
NORTHWEST WISCONSIN

CITY           SKY/WX    TMP DP  RH WIND       PRES   REMARKS
SUPERIOR ARPT  SUNNY     69  52  54 SW13      29.78F
ASHLAND        SUNNY     68  47  46 S13G18    29.81F
HAYWARD        SUNNY     66  50  56 S15G23    29.83F
SIREN          MOSUNNY   65  51  61 S10       29.83F
CUMBERLAND     CLOUDY    59  48  67 S12       29.85F
RICE LAKE      CLOUDY    59  49  69 SE8       29.87F
CHETEK         CLOUDY    59  51  74 SE8       29.87F
LADYSMITH      SUNNY     60  51  72 S9        29.89F
EAU CLAIRE     CLOUDY    60  49  66 S8        29.88S
MENOMONIE      CLOUDY    60  51  69 SE8       29.87F
NEW RICHMOND   CLOUDY    59  53  79 S9        29.86F
OSCEOLA        CLOUDY    62  55  78 S10       29.87F
$$

WIZ003>005-009-010-017-018-242000-
NORTH CENTRAL WISCONSIN

CITY           SKY/WX    TMP DP  RH WIND       PRES   REMARKS
MANITOWISH WTR SUNNY     55  48  77 S7        29.88F
ARBOR VITAE    SUNNY     57  49  76 S8        29.89F
WOODRUFF       SUNNY     57  49  76 S8        29.89F
RHINELANDER    SUNNY     57  47  69 VRB7      29.90F
EAGLE RIVER    SUNNY     57  47  69 SW7       29.89F
LAND O LAKES   SUNNY     60  45  57 S8        29.89F
PHILLIPS       SUNNY     60  47  61 S10G16    29.87F
TOMAHAWK       SUNNY     54  48  81 CALM      29.91F
MEDFORD        MOSUNNY   51  49  92 SE8       29.91F
MERRILL        CLOUDY    51  48  90 S5        29.93F
$$

WIZ029-030-035-036-043>047-242000-
CENTRAL WISCONSIN

CITY           SKY/WX    TMP DP  RH WIND       PRES   REMARKS
WAUSAU         PTSUNNY   51  48  89 S7        29.92F
MOSINEE        CLOUDY    50  50 100 S8        29.94F FOG
MARSHFIELD     MOSUNNY   55  49  80 SE6       29.92F
STEVENS POINT  CLOUDY    49  47  92 S7        29.95F
WAUPACA        CLOUDY    54  52  94 S8        29.96F
WAUTOMA        CLOUDY    54  50  87 VRB5      29.97F
WISC RAPIDS      N/A     56  50  80 S5        29.94F
CAMP DOUGLAS   NOT AVBL
$$

WIZ011>013-019>022-031-037>040-048>050-242000-
NORTHEAST WISCONSIN

CITY           SKY/WX    TMP DP  RH WIND       PRES   REMARKS
ANTIGO         PTSUNNY   51  50  98 S8        29.93F
SHAWANO        CLOUDY    51  49  90 SW5       29.95F
OCONTO         CLOUDY    52  49  90 SW3       29.94F
STURGEON BAY   PTSUNNY   54  48  82 SW5       29.94F
GREEN BAY      CLOUDY    52  49  89 SW5       29.94F FOG
MANITOWOC      NOT AVBL
APPLETON         N/A     50  48  93 SW8       29.96F FOG
CLINTONVILLE   CLOUDY    50  46  87 SW7       29.95F
OSHKOSH        CLOUDY    52  50  93 SW8       29.96F
$$

WIZ032>034-041-042-053>061-242000-
SOUTHWEST WISCONSIN

CITY           SKY/WX    TMP DP  RH WIND       PRES   REMARKS
LA CROSSE      CLOUDY    63  52  67 S10       29.88F
SPARTA         PTSUNNY   62  48  58 S10       29.91F
VIROQUA        PTSUNNY   62  55  76 SE12      29.92F
BOSCOBEL       MOSUNNY   65  53  65 S9        29.94F
PRAIRIE DU CHI MOSUNNY   64  50  61 SE10G17   29.92F
PLATTEVILLE    CLOUDY    55  55  98 S12       29.99F
$$

WIZ056-057-062-063-064-067-068-242000-
SOUTH CENTRAL WISCONSIN

CITY           SKY/WX    TMP DP  RH WIND       PRES   REMARKS
REEDSBURG      PTSUNNY   56  51  85 S9        29.96F
BARABOO/DELLS  MOSUNNY   58  49  71 S8        29.96F
LONE ROCK      PTSUNNY   63  53  70 S7        29.97F
MINERAL POINT  PTSUNNY   61  59  94 S10       29.98F
MADISON        PTSUNNY   56  50  80 S8        29.98F
MIDDLETON      PTSUNNY   59  52  76 S7        29.98F
WATERTOWN      CLOUDY    52  52  97 S6        29.99F
MONROE         CLOUDY    54  52  94 SW7       29.99F
JANESVILLE     CLOUDY    55  52  88 S7        30.00F FOG
$$

WIZ051-052-058>065-066-070>072-242000-
SOUTHEAST WISCONSIN

CITY           SKY/WX    TMP DP  RH WIND       PRES   REMARKS
MILWAUKEE      MOSUNNY   57  50  77 VRB6      29.99F
WAUKESHA       MOSUNNY   55  52  88 SW7       29.99F
MILWAUKEE/TIMM SUNNY     57  48  72 CALM      29.99F
RACINE         PTSUNNY   57  51  80 S7        30.00F
BURLINGTON     PTSUNNY   54  50  86 W5        30.00F
KENOSHA        PTSUNNY   56  52  86 SW7       30.00F
FOND DU LAC    CLOUDY    52  49  89 SW10      29.97F
SHEBOYGAN      MOSUNNY   60  49  66 SW6       29.95F
WEST BEND      MOSUNNY   55  46  71 SW5       29.98F
JUNEAU         CLOUDY    52  49  91 S8        30.00F
$$

LSZ147-162-242000-
LAKE SUPERIOR

STATION/POSITION TIME  TEMP    WIND        PRES    WAVE
                       AIR SEA DIR/SP/G            HT/PER
                 (UTC) (F)     (DEG/KT/KT) (MB)    (FT/S)
W MID LAKE BUOY  1750   48 47  210/  6/  6 1010.2F   1/ 3
DEVILS ISLAND    1800   51     340/  3/  4 1009.8F
PORT WING        1800   54      20/  3/  3 1009.5
SAXON HARBOR     1800   68     220/ 13/ 19 1009.8F
$$

LMZ867-665-643>646-242000-
LAKE MICHIGAN

STATION/POSITION TIME  TEMP    WIND        PRES    WAVE
                       AIR SEA DIR/SP/G            HT/PER
                 (UTC) (F)     (DEG/KT/KT) (MB)    (FT/S)
CHAMBERS ISLAND  1800   48     190/  5/ 11 1014.9F
N MID LAKE BUOY  1750   50 51  210/ 12/ 14 1014.6F   1/ 5
NORTHPORT PIER   1800   52     220/  2/  6 1014.6F
SISTER BAY       1842          220/ 10/ 13   N/A
ALGOMA LAKESHORE 1641          240/  9/ 10   N/A
KEWAUNEE LAKESHO 1800   51     170/ 10/ 11 1014.1F
SHEBOYGAN LAKESH 1800   50 50  160/ 10/ 12 1016.0F
PORT WASHINGTON  1800   52     150/  5/  6 1016.3
ATWATER BUOY     1800   53     150/  6/  8 1017.0F
MILWAUKEE LAKESH 1800   55     240/  6/  7   N/A
S MID LAKE BUOY  1750   52 54  230/  8/ 10 1016.9F   1
KENOSHA   LAKESH 1800   53     270/  6/ 11 1016.6F
$$

TC  - TEMPERATURE IN CELSIUS
VSB - VISIBILITY IN STATUTE MILES
WCI - WIND CHILL INDEX
HX  - HEAT INDEX




USA.gov is the U.S. government's official web portal to all federal, state and local government web resources and services.